COSMOS 1275 DEB

Satellite information

Favourite Embed

Satellite Type and Status

DEBRISIN ORBIT

Key statistics

Satellite COSMOS 1275 DEB at a glance.

Uptime

16164

Days in orbit

Revolutions

≈ 14.1

Per day

Orbit

LEO

Low Earth Orbit

Inclination

82.8

Latest

Satellite identification and parameters

Extended collection of information and parameters for COSMOS 1275 DEB.

Object identification

Identified? True

Debris? True

Object name: COSMOS 1275 DEB

International designator: 1981-053UW

Object number (NORAD): 42230

Object ID (CCSDS): 42230

Country: COMMONWEALTH OF INDEPENDENT STATES (CIS)

Current information (Y/N): Y

RCS size: SMALL

Orbital parameters

Period: 101.783 minutes

Inclination: 82.7507 deg

SMA: 7221.199 km

Apoapsis: 875.723 km

Periapsis: 810.405 km

RAAN: 196.3819 deg

Eccentricy: 0.00452261

Argument of periapsis: 71.7451 deg

Mean anomaly: 288.864 deg

Mean motion: 14.14779612 rev/day

Mean motion (dot): 0.00007046 rev/day2

B* drag term: 0.0036112349 1/REarth

Two-line elements (TLE)

Creation date: Sept. 3, 2025, 10:15 a.m.

Reference frame: TEME

Reference center: EARTH

Epoch: Sept. 3, 2025, 2:41 a.m. UTC

TLE line 0: 0 COSMOS 1275 DEB

TLE line 1: 1 42230U 81053UW 25246.11241726 .00007046 00000-0 36112-2 0 9993

TLE line 2: 2 42230 82.7507 196.3819 0045226 71.7451 288.8640 14.14779612586381

Live tracking on map

Real-time ground track for satellite COSMOS 1275 DEB.

In-orbit conjunctions

A list of the most updated potential collisions computed for object COSMOS 1275 DEB.

Target Orbit TCA Probability of collision Miss distance Type
CZ-6A DEB SSO 2025-04-23 05:46:33 0.0001910195 80.0 (m) DEBRIS
METEOR 2-7 DEB LEO 2025-04-01 15:23:12 0.0001168235 81.0 (m) DEBRIS
DMSP 5D-2 F13 DEB SSO 2024-11-13 03:42:47 0.0001121409 198.0 (m) DEBRIS
FENGYUN 1C DEB SSO 2024-11-12 11:33:56 0.000111915 365.0 (m) DEBRIS
CZ-6A DEB SSO 2024-10-22 03:32:44 0.0005104171 152.0 (m) DEBRIS

Associated space launch

Navigation satellite providing location information for the Tsiklon-B navigation system

COSMOS 1275 DEB was lifted into orbit during the mission ‘Kosmos-3M | Parus 27’, on board a Kosmos-3M space rocket.

The launch took place on June 4, 1981, 3:41 p.m. from 132/2.

For more information about the launch, click the button.

Launch to space Kosmos-3M | Parus 27
Kosmos-3M | Parus 27

Agency: N/A

Status: Launch Successful

Launch date: June 4, 1981, 3:41 p.m. UTC

Rocket: Kosmos-3M

Launch pad: 132/2

Location: Plesetsk Cosmodrome, Russian Federation

...

Latest news about this satellite

There are no fresh news available about this satellite. Check back as we update our databases every day.


Newsletter sign-up

Weekly statistics, charts and insights to help you stay on top of the space industry.